# Tabular Observed and Forecast Hydrograph Information
#
# Location: Humboldt River - Palisade (PALN2)
#
# File Generation Time: 09/04/2026 at 07:46 AM PDT
# Data Interval: 1 Hour
#
# Most Recent Date & Time of Maximum Observed: 08/30/2026 at 11:00 AM PDT
# Maximum Observed Stage: 0.86 Feet
# Maximum Observed Flow: 22 cfs
#
# Earliest Date & Time of Maximum Forecast: 09/04/2026 at 08:00 AM PDT
# Maximum Forecast Stage: 0.83 Feet
# Maximum Forecast Flow: 20 cfs
#
# OBSERVED
#
# Date & Time (Local) Stage (Feet) Flow (cfs) Trend Observed Status
# ---------------------------------------------------------------------------------
08/30/2026 07 AM PDT 0.85 21 Normal
08/30/2026 08 AM PDT 0.85 21 0 Normal
08/30/2026 09 AM PDT 0.86 22 + Normal
08/30/2026 10 AM PDT 0.86 22 0 Normal
08/30/2026 11 AM PDT 0.86 22 0 Normal
08/30/2026 12 PM PDT 0.85 21 - Normal
08/30/2026 01 PM PDT 0.85 21 0 Normal
08/30/2026 02 PM PDT 0.85 21 0 Normal
08/30/2026 03 PM PDT 0.85 21 0 Normal
08/30/2026 04 PM PDT 0.84 21 - Normal
08/30/2026 05 PM PDT 0.84 21 0 Normal
08/30/2026 06 PM PDT 0.84 21 0 Normal
08/30/2026 07 PM PDT 0.83 20 - Normal
08/30/2026 08 PM PDT 0.83 20 0 Normal
08/30/2026 09 PM PDT 0.82 20 - Normal
08/30/2026 10 PM PDT 0.82 20 0 Normal
08/30/2026 11 PM PDT 0.81 19 - Normal
08/31/2026 12 AM PDT 0.81 19 0 Normal
08/31/2026 01 AM PDT 0.82 20 + Normal
08/31/2026 02 AM PDT 0.82 20 0 Normal
08/31/2026 03 AM PDT 0.83 20 + Normal
08/31/2026 04 AM PDT 0.84 21 + Normal
08/31/2026 05 AM PDT 0.84 21 0 Normal
08/31/2026 06 AM PDT 0.84 21 0 Normal
08/31/2026 07 AM PDT 0.84 21 0 Normal
08/31/2026 08 AM PDT 0.85 21 + Normal
08/31/2026 09 AM PDT 0.85 21 0 Normal
08/31/2026 10 AM PDT 0.84 21 - Normal
08/31/2026 11 AM PDT 0.84 21 0 Normal
08/31/2026 12 PM PDT 0.84 21 0 Normal
08/31/2026 01 PM PDT 0.84 21 0 Normal
08/31/2026 02 PM PDT 0.84 21 0 Normal
08/31/2026 03 PM PDT 0.84 21 0 Normal
08/31/2026 04 PM PDT 0.84 21 0 Normal
08/31/2026 05 PM PDT 0.84 21 0 Normal
08/31/2026 06 PM PDT 0.84 21 0 Normal
08/31/2026 07 PM PDT 0.83 20 - Normal
08/31/2026 08 PM PDT 0.82 20 - Normal
08/31/2026 09 PM PDT 0.82 20 0 Normal
08/31/2026 10 PM PDT 0.81 19 - Normal
08/31/2026 11 PM PDT 0.81 19 0 Normal
09/01/2026 12 AM PDT 0.81 19 0 Normal
09/01/2026 01 AM PDT 0.81 19 0 Normal
09/01/2026 02 AM PDT 0.82 20 + Normal
09/01/2026 03 AM PDT 0.82 20 0 Normal
09/01/2026 04 AM PDT 0.82 20 0 Normal
09/01/2026 05 AM PDT 0.83 20 + Normal
09/01/2026 06 AM PDT 0.84 21 + Normal
09/01/2026 07 AM PDT 0.84 21 0 Normal
09/01/2026 08 AM PDT 0.84 21 0 Normal
09/01/2026 09 AM PDT 0.84 21 0 Normal
09/01/2026 10 AM PDT 0.85 21 + Normal
09/01/2026 11 AM PDT 0.85 21 0 Normal
09/01/2026 12 PM PDT 0.84 21 - Normal
09/01/2026 01 PM PDT 0.84 21 0 Normal
09/01/2026 02 PM PDT 0.84 21 0 Normal
09/01/2026 03 PM PDT 0.84 21 0 Normal
09/01/2026 04 PM PDT 0.83 20 - Normal
09/01/2026 05 PM PDT 0.83 20 0 Normal
09/01/2026 06 PM PDT 0.82 20 - Normal
09/01/2026 07 PM PDT 0.82 20 0 Normal
09/01/2026 08 PM PDT 0.81 19 - Normal
09/01/2026 09 PM PDT 0.81 19 0 Normal
09/01/2026 10 PM PDT 0.80 18 - Normal
09/01/2026 11 PM PDT 0.80 18 0 Normal
09/02/2026 12 AM PDT 0.80 18 0 Normal
09/02/2026 01 AM PDT 0.80 18 0 Normal
09/02/2026 02 AM PDT 0.80 18 0 Normal
09/02/2026 03 AM PDT 0.80 18 0 Normal
09/02/2026 04 AM PDT 0.81 19 + Normal
09/02/2026 05 AM PDT 0.81 19 0 Normal
09/02/2026 06 AM PDT 0.82 20 + Normal
09/02/2026 07 AM PDT 0.82 20 0 Normal
09/02/2026 08 AM PDT 0.83 20 + Normal
09/02/2026 09 AM PDT 0.84 21 + Normal
09/02/2026 10 AM PDT 0.84 21 0 Normal
09/02/2026 11 AM PDT 0.84 21 0 Normal
09/02/2026 12 PM PDT 0.84 21 0 Normal
09/02/2026 01 PM PDT 0.84 21 0 Normal
09/02/2026 02 PM PDT 0.83 20 - Normal
09/02/2026 03 PM PDT 0.83 20 0 Normal
09/02/2026 04 PM PDT 0.83 20 0 Normal
09/02/2026 05 PM PDT 0.83 20 0 Normal
09/02/2026 06 PM PDT 0.82 20 - Normal
09/02/2026 07 PM PDT 0.82 20 0 Normal
09/02/2026 08 PM PDT 0.82 20 0 Normal
09/02/2026 09 PM PDT 0.82 20 0 Normal
09/02/2026 10 PM PDT 0.82 20 0 Normal
09/02/2026 11 PM PDT 0.81 19 - Normal
09/03/2026 12 AM PDT 0.81 19 0 Normal
09/03/2026 01 AM PDT 0.81 19 0 Normal
09/03/2026 02 AM PDT 0.81 19 0 Normal
09/03/2026 03 AM PDT 0.81 19 0 Normal
09/03/2026 04 AM PDT 0.82 20 + Normal
09/03/2026 05 AM PDT 0.82 20 0 Normal
09/03/2026 06 AM PDT 0.83 20 + Normal
09/03/2026 07 AM PDT 0.83 20 0 Normal
09/03/2026 08 AM PDT 0.84 21 + Normal
09/03/2026 09 AM PDT 0.84 21 0 Normal
09/03/2026 10 AM PDT 0.84 21 0 Normal
09/03/2026 11 AM PDT 0.84 21 0 Normal
09/03/2026 12 PM PDT 0.84 21 0 Normal
09/03/2026 01 PM PDT 0.84 21 0 Normal
09/03/2026 02 PM PDT 0.84 21 0 Normal
09/03/2026 03 PM PDT 0.84 21 0 Normal
09/03/2026 04 PM PDT 0.83 20 - Normal
09/03/2026 05 PM PDT 0.83 20 0 Normal
09/03/2026 06 PM PDT 0.82 20 - Normal
09/03/2026 07 PM PDT 0.82 20 0 Normal
09/03/2026 08 PM PDT 0.81 19 - Normal
09/03/2026 09 PM PDT 0.81 19 0 Normal
09/03/2026 10 PM PDT 0.81 19 0 Normal
09/03/2026 11 PM PDT 0.81 19 0 Normal
09/04/2026 12 AM PDT 0.81 19 0 Normal
09/04/2026 01 AM PDT 0.82 20 + Normal
09/04/2026 02 AM PDT 0.82 20 0 Normal
09/04/2026 03 AM PDT 0.82 20 0 Normal
09/04/2026 04 AM PDT 0.82 20 0 Normal
09/04/2026 05 AM PDT 0.83 20 + Normal
09/04/2026 06 AM PDT 0.83 20 0 Normal
09/04/2026 07 AM PDT 0.83 20 0 Normal
#
# FORECAST
#
# Date & Time (Local) Stage (Feet) Flow (cfs) Trend Forecast Status
# ---------------------------------------------------------------------------------
09/04/2026 08 AM PDT 0.83 20 Normal
09/04/2026 09 AM PDT 0.83 20 0 Normal
09/04/2026 10 AM PDT 0.83 20 0 Normal
09/04/2026 11 AM PDT 0.83 20 0 Normal
09/04/2026 12 PM PDT 0.82 20 - Normal
09/04/2026 01 PM PDT 0.82 20 0 Normal
09/04/2026 02 PM PDT 0.82 20 0 Normal
09/04/2026 03 PM PDT 0.82 20 0 Normal
09/04/2026 04 PM PDT 0.82 20 0 Normal
09/04/2026 05 PM PDT 0.82 20 0 Normal
09/04/2026 06 PM PDT 0.82 20 0 Normal
09/04/2026 07 PM PDT 0.82 20 0 Normal
09/04/2026 08 PM PDT 0.82 20 0 Normal
09/04/2026 09 PM PDT 0.82 20 0 Normal
09/04/2026 10 PM PDT 0.82 20 0 Normal
09/04/2026 11 PM PDT 0.81 19 - Normal
09/05/2026 12 AM PDT 0.81 19 0 Normal
09/05/2026 01 AM PDT 0.81 19 0 Normal
09/05/2026 02 AM PDT 0.81 19 0 Normal
09/05/2026 03 AM PDT 0.81 19 0 Normal
09/05/2026 04 AM PDT 0.81 19 0 Normal
09/05/2026 05 AM PDT 0.81 19 0 Normal
09/05/2026 06 AM PDT 0.81 19 0 Normal
09/05/2026 07 AM PDT 0.81 19 0 Normal
09/05/2026 08 AM PDT 0.81 19 0 Normal
09/05/2026 09 AM PDT 0.81 19 0 Normal
09/05/2026 10 AM PDT 0.81 19 0 Normal
09/05/2026 11 AM PDT 0.81 19 0 Normal
09/05/2026 12 PM PDT 0.81 19 0 Normal
09/05/2026 01 PM PDT 0.81 19 0 Normal
09/05/2026 02 PM PDT 0.81 19 0 Normal
09/05/2026 03 PM PDT 0.81 19 0 Normal
09/05/2026 04 PM PDT 0.81 19 0 Normal
09/05/2026 05 PM PDT 0.81 19 0 Normal
09/05/2026 06 PM PDT 0.81 19 0 Normal
09/05/2026 07 PM PDT 0.81 19 0 Normal
09/05/2026 08 PM PDT 0.80 18 - Normal
09/05/2026 09 PM PDT 0.80 18 0 Normal
09/05/2026 10 PM PDT 0.80 18 0 Normal
09/05/2026 11 PM PDT 0.80 18 0 Normal
09/06/2026 12 AM PDT 0.80 18 0 Normal
09/06/2026 01 AM PDT 0.80 18 0 Normal
09/06/2026 02 AM PDT 0.80 18 0 Normal
09/06/2026 03 AM PDT 0.80 18 0 Normal
09/06/2026 04 AM PDT 0.80 18 0 Normal
09/06/2026 05 AM PDT 0.80 18 0 Normal
09/06/2026 06 AM PDT 0.80 18 0 Normal
09/06/2026 07 AM PDT 0.80 18 0 Normal
09/06/2026 08 AM PDT 0.80 18 0 Normal
09/06/2026 09 AM PDT 0.80 18 0 Normal
09/06/2026 10 AM PDT 0.80 18 0 Normal
09/06/2026 11 AM PDT 0.80 18 0 Normal
09/06/2026 12 PM PDT 0.80 18 0 Normal
09/06/2026 01 PM PDT 0.80 18 0 Normal
09/06/2026 02 PM PDT 0.79 18 - Normal
09/06/2026 03 PM PDT 0.79 18 0 Normal
09/06/2026 04 PM PDT 0.79 18 0 Normal
09/06/2026 05 PM PDT 0.79 18 0 Normal
09/06/2026 06 PM PDT 0.79 18 0 Normal
09/06/2026 07 PM PDT 0.79 18 0 Normal
09/06/2026 08 PM PDT 0.79 18 0 Normal
09/06/2026 09 PM PDT 0.79 18 0 Normal
09/06/2026 10 PM PDT 0.79 18 0 Normal
09/06/2026 11 PM PDT 0.79 18 0 Normal
09/07/2026 12 AM PDT 0.79 18 0 Normal
09/07/2026 01 AM PDT 0.79 18 0 Normal
09/07/2026 02 AM PDT 0.79 18 0 Normal
09/07/2026 03 AM PDT 0.79 18 0 Normal
09/07/2026 04 AM PDT 0.79 18 0 Normal
09/07/2026 05 AM PDT 0.78 17 - Normal
09/07/2026 06 AM PDT 0.78 17 0 Normal
09/07/2026 07 AM PDT 0.78 17 0 Normal
09/07/2026 08 AM PDT 0.78 17 0 Normal
09/07/2026 09 AM PDT 0.78 17 0 Normal
09/07/2026 10 AM PDT 0.78 17 0 Normal
09/07/2026 11 AM PDT 0.78 17 0 Normal
09/07/2026 12 PM PDT 0.78 17 0 Normal
09/07/2026 01 PM PDT 0.78 17 0 Normal
09/07/2026 02 PM PDT 0.78 17 0 Normal
09/07/2026 03 PM PDT 0.78 17 0 Normal
09/07/2026 04 PM PDT 0.78 17 0 Normal
09/07/2026 05 PM PDT 0.78 17 0 Normal
09/07/2026 06 PM PDT 0.78 17 0 Normal
09/07/2026 07 PM PDT 0.77 17 - Normal
09/07/2026 08 PM PDT 0.77 17 0 Normal
09/07/2026 09 PM PDT 0.77 17 0 Normal
09/07/2026 10 PM PDT 0.77 17 0 Normal
09/07/2026 11 PM PDT 0.77 17 0 Normal
09/08/2026 12 AM PDT 0.77 17 0 Normal
09/08/2026 01 AM PDT 0.77 17 0 Normal
09/08/2026 02 AM PDT 0.77 17 0 Normal
09/08/2026 03 AM PDT 0.77 17 0 Normal
09/08/2026 04 AM PDT 0.77 17 0 Normal
09/08/2026 05 AM PDT 0.77 17 0 Normal
09/08/2026 06 AM PDT 0.77 17 0 Normal
09/08/2026 07 AM PDT 0.77 17 0 Normal
09/08/2026 08 AM PDT 0.77 17 0 Normal
09/08/2026 09 AM PDT 0.77 17 0 Normal
09/08/2026 10 AM PDT 0.76 16 - Normal
09/08/2026 11 AM PDT 0.76 16 0 Normal
09/08/2026 12 PM PDT 0.76 16 0 Normal
09/08/2026 01 PM PDT 0.76 16 0 Normal
09/08/2026 02 PM PDT 0.76 16 0 Normal
09/08/2026 03 PM PDT 0.76 16 0 Normal
09/08/2026 04 PM PDT 0.76 16 0 Normal
09/08/2026 05 PM PDT 0.76 16 0 Normal
09/08/2026 06 PM PDT 0.76 16 0 Normal
09/08/2026 07 PM PDT 0.76 16 0 Normal
09/08/2026 08 PM PDT 0.76 16 0 Normal
09/08/2026 09 PM PDT 0.76 16 0 Normal
09/08/2026 10 PM PDT 0.76 16 0 Normal
09/08/2026 11 PM PDT 0.76 16 0 Normal
09/09/2026 12 AM PDT 0.75 16 - Normal
09/09/2026 01 AM PDT 0.75 16 0 Normal
09/09/2026 02 AM PDT 0.75 16 0 Normal
09/09/2026 03 AM PDT 0.75 16 0 Normal
09/09/2026 04 AM PDT 0.75 16 0 Normal
09/09/2026 05 AM PDT 0.75 16 0 Normal
#
# NOTE 1: Stages are rounded to the nearest hundredth (.01) of a foot.
# NOTE 2: Flows are rounded to the nearest (1) cfs.
# NOTE 3: Trends are determined using hourly change in unrounded stage and flow.
# NOTE 4: Maximum Values are determined using unrounded stage and flow.
|